Regional Weather Roundup
Issued by NWS

Home | Current Version | Previous Version | Graphics & Text | Print | Product List | Glossary On
Versions: 1 2 3 4 5 6 7 8 9 10 11 12 13 14 15 16 17 18 19 20 21 22 23 24 25 26 27 28 29 30 31 32 33 34 35 36 37 38 39 40 41 42 43 44 45 46 47 48 49 50
000
ASUS43 KLMK 201302
RWRKY
KENTUCKY REGIONAL WEATHER ROUNDUP
NATIONAL WEATHER SERVICE LOUISVILLE KY
900 AM EDT THU JUL 20 2017

NOTE "FAIR" INDICATES FEW OR NO CLOUDS BELOW 12,000 FEET
WITH NO SIGNIFICANT WEATHER AND/OR OBSTRUCTIONS TO VISIBILITY.

KYZ001>023-026-027-061>063-070>075-201400-
WESTERN AND SOUTH CENTRAL KENTUCKY

CITY           SKY/WX    TMP DP  RH WIND       PRES   REMARKS
PADUCAH        SUNNY     81  73  76 SW6       30.10R
HENDERSON      SUNNY     79  75  87 SW5       30.11R
OWENSBORO      SUNNY     79  75  87 S6        30.12R
HOPKINSVILLE   SUNNY     81  75  84 SW5       30.13R
BOWLING GREEN  CLOUDY    82  75  79 CALM      30.14R
GLASGOW        NOT AVBL
$$

KYZ024-025-028>034-038-045-046-053-201400-
NORTH CENTRAL KENTUCKY

CITY           SKY/WX    TMP DP  RH WIND       PRES   REMARKS
LOUISVILLE/SDF CLOUDY    80  71  74 S5        30.12R
LOUISVILLE/LOU PTSUNNY   79  74  84 CALM      30.13R
FORT KNOX      SUNNY     79  72  77 CALM      30.13R
$$

KYZ035>037-039>044-047>052-055>060-089>105-201400-
NORTHEAST KENTUCKY

CITY           SKY/WX    TMP DP  RH WIND       PRES   REMARKS
LEXINGTON      MOSUNNY   77  69  76 SW3       30.15R
COVINGTON      CLOUDY    77  73  87 SW5       30.13R
FRANKFORT      MOSUNNY   78  69  73 SW6       30.13R
$$

KYZ054-064>069-076>088-106>120-201400-
SOUTHEAST KENTUCKY

CITY           SKY/WX    TMP DP  RH WIND       PRES   REMARKS
JACKSON        MOSUNNY   76  68  76 CALM      30.17R
LONDON         SUNNY     74  68  81 SE3       30.16R
SOMERSET       MOSUNNY   73  72  94 CALM      30.18R
MIDDLESBORO    MOSUNNY   70  67  90 CALM      30.18R
MONTICELLO     SUNNY     76  71  85 VRB3      30.18R
$$





USA.gov is the U.S. government's official web portal to all federal, state and local government web resources and services.